Mesquite, TX

5:39 PM CDT on August 18, 2017 (GMT -0500)
Mesquite Metro

Weather History for KHQZ - May, 2014

Change the Weather History Date:

Saturday, May 3, 2014

  Actual Average (KDFW) Record (KDFW)
Temperature  
Mean Temperature 65 °F -  
Max Temperature 85 °F 79 °F 97 °F (1920)
Min Temperature 46 °F 59 °F 39 °F (2013)
Growing Degree Days 15 (Base 50)    
Moisture  
Dew Point 41 °F    
Average Humidity 53    
Maximum Humidity 81    
Minimum Humidity 17    
Precipitation  
Precipitation 0.00 in - - ()
Sea Level Pressure  
Sea Level Pressure 29.99 in    
Wind  
Wind Speed 1 mph (SE)    
Max Wind Speed 7 mph    
Max Gust Speed -    
Visibility 10 miles    
Events      
Averages and records for this station are not official NWS values.
T = Trace of Precipitation, MM = Missing Value Source: NWS Daily Summary

Daily Weather History Graph

Daily Weather History Graph

Search for Another Location

Airport or City:

Trip Planner

Search our weather history database for the weather conditions in past years. The results will help you decide how hot, cold, wet, or windy it might be!

Date:

Astronomy

May. 03, 2014 Rise Set
Actual Time 6:37 AM CDT 8:09 PM CDT
Civil Twilight 6:10 AM CDT 8:35 PM CDT
Nautical Twilight 5:39 AM CDT 9:07 PM CDT
Astronomical Twilight 5:06 AM CDT 9:40 PM CDT
Moon 10:10 AM CDT (5/3) No Moon Set
Length of Visible Light 14h 25m
Length of Day
13h 32m
Waxing Crescent, 20% of the Moon is Illuminated
May 3
Waxing Crescent
May 6
First Quarter
May 14
Full
May 21
Last Quarter
May 28
New

Hourly Weather History & Observations

Time (CDT) Temp. Dew Point Humidity Pressure Visibility Wind Dir Wind Speed Gust Speed Precip Events Conditions
12:15 AM 57.0 °F 39.6 °F 52% 29.99 in 10.0 mi Calm Calm - N/A   Clear
12:35 AM 55.0 °F 37.9 °F 53% 29.99 in 10.0 mi Calm Calm - N/A   Clear
12:55 AM 54.3 °F 38.7 °F 55% 29.98 in 10.0 mi Calm Calm - N/A   Clear
1:15 AM 53.2 °F 39.4 °F 59% 29.98 in 10.0 mi Calm Calm - N/A   Clear
1:35 AM 54.7 °F 40.6 °F 59% 29.98 in 10.0 mi Calm Calm - N/A   Clear
1:55 AM 55.0 °F 39.6 °F 56% 29.98 in 10.0 mi Calm Calm - N/A   Clear
2:15 AM 55.0 °F 40.5 °F 58% 29.97 in 10.0 mi Calm Calm - N/A   Clear
2:35 AM 54.3 °F 40.6 °F 60% 29.97 in 10.0 mi Calm Calm - N/A   Clear
2:55 AM 52.2 °F 41.0 °F 66% 29.97 in 10.0 mi Calm Calm - N/A   Clear
3:15 AM 50.5 °F 41.4 °F 71% 29.97 in 10.0 mi Calm Calm - N/A   Clear
3:35 AM 51.1 °F 41.9 °F 71% 29.97 in 10.0 mi Calm Calm - N/A   Clear
3:55 AM 48.2 °F 40.6 °F 75% 29.97 in 10.0 mi Calm Calm - N/A   Clear
4:15 AM 48.2 °F 41.5 °F 78% 29.96 in 10.0 mi Calm Calm - N/A   Clear
4:35 AM 48.0 °F 42.4 °F 81% 29.96 in 10.0 mi Calm Calm - N/A   Clear
4:55 AM 50.2 °F 41.9 °F 73% 29.96 in 10.0 mi Calm Calm - N/A   Clear
5:15 AM 48.4 °F 41.2 °F 76% 29.96 in 10.0 mi Calm Calm - N/A   Clear
5:35 AM 47.3 °F 39.9 °F 76% 29.97 in 10.0 mi Calm Calm - N/A   Clear
6:55 AM 46.4 °F 41.0 °F 81% 29.99 in 10.0 mi Calm Calm - N/A   Clear
7:55 AM 51.8 °F 44.6 °F 76% 30.01 in 10.0 mi Calm Calm - N/A   Clear
8:55 AM 60.8 °F 46.4 °F 59% 30.02 in 10.0 mi Calm Calm - N/A   Clear
9:55 AM 66.2 °F 46.4 °F 49% 30.04 in 10.0 mi Calm Calm - N/A   Clear
10:55 AM 73.4 °F 44.6 °F 36% 30.05 in 10.0 mi Calm Calm - N/A   Clear
12:55 PM 80.6 °F 32.0 °F 17% 30.04 in 10.0 mi Calm Calm - N/A   Clear
1:45 PM 82.4 °F 33.8 °F 17% 30.02 in 10.0 mi Calm Calm - N/A   Clear
2:45 PM 84.2 °F 37.4 °F 19% 30.01 in 10.0 mi SE 4.6 mph - N/A   Clear
3:55 PM 84.2 °F 35.6 °F 18% 29.99 in 10.0 mi East 5.8 mph - N/A   Clear
4:45 PM 84.2 °F 35.6 °F 18% 29.98 in 10.0 mi East 6.9 mph - N/A   Clear
6:45 PM 84.2 °F 39.2 °F 20% 29.97 in 10.0 mi East 6.9 mph - N/A   Clear
9:55 PM 68.0 °F 43.2 °F 41% 30.01 in 10.0 mi SE 4.6 mph - N/A   Clear
10:15 PM 66.6 °F 43.0 °F 42% 30.01 in 10.0 mi SE 4.6 mph - N/A   Clear
10:35 PM 66.2 °F 42.8 °F 43% 30.02 in 10.0 mi SE 4.6 mph - N/A   Clear
10:55 PM 65.3 °F 43.2 °F 45% 30.02 in 10.0 mi SSE 5.8 mph - N/A   Clear
11:15 PM 64.6 °F 43.3 °F 46% 30.02 in 10.0 mi SE 4.6 mph - N/A   Clear
11:35 PM 63.7 °F 45.0 °F 51% 30.02 in 10.0 mi SSE 6.9 mph - N/A   Clear
11:55 PM 63.5 °F 44.1 °F 49% 30.01 in 10.0 mi SSE 5.8 mph - N/A   Clear